Weather History for Dunkirk, NY

Change the Weather History Date:

Friday, January 18, 2013

  Actual Average Record
Temperature  
Mean Temperature 26 °F -  
Max Temperature 34 °F 31 °F 61 °F (1973)
Min Temperature 19 °F 18 °F -10 °F (1982)
Degree Days  
Heating Degree Days 39    
Moisture  
Dew Point 11 °F    
Average Humidity 59    
Maximum Humidity 80    
Minimum Humidity 44    
Precipitation  
Precipitation 0.00 in - - ()
Sea Level Pressure  
Sea Level Pressure 30.29 in    
Wind  
Wind Speed 14 mph (West)    
Max Wind Speed 23 mph    
Max Gust Speed 40 mph    
Visibility 9 miles    
Events Snow    
Averages and records for this station are not official NWS values.
T = Trace of Precipitation, MM = Missing Value Source: NWS Daily Summary

Daily Weather History Graph

Daily Weather History Graph

Search for Another Location

Airport:

Trip Planner

Search our weather history database for the weather conditions in past years. The results will help you decide how hot, cold, wet, or windy it might be!

Date:

Astronomy

Jan. 18, 2013 Rise Set
Actual Time 7:42 AM EST 5:13 PM EST
Civil Twilight 7:11 AM EST 5:44 PM EST
Nautical Twilight 6:36 AM EST 6:18 PM EST
Astronomical Twilight 6:03 AM EST 6:52 PM EST
Moon 11:09 AM EST (1/18) 12:11 AM EST (1/18)
Length of Visible Light 10h 32m
Length of Day
9h 31m
Waxing Crescent, 47% of the Moon is Illuminated
Jan 18
Waxing Crescent
Jan 18
First Quarter
Jan 26
Full
Feb 3
Last Quarter
Feb 10
New

Hourly Weather History & Observations

Time (EST) Temp. Windchill Dew Point Humidity Pressure Visibility Wind Dir Wind Speed Gust Speed Precip Events Conditions
12:29 AM 21.2 °F 8.9 °F 14.0 °F 74% 30.18 in 10.0 mi NNW 12.7 mph - N/A   Overcast
12:53 AM 21.0 °F 8.6 °F 12.9 °F 71% 30.22 in 4.0 mi NW 12.7 mph - 0.00 in Snow Light Snow
1:01 AM 19.4 °F 5.5 °F 14.0 °F 80% 30.19 in 1.8 mi NNW 15.0 mph 25.3 mph 0.00 in Snow Light Snow
1:16 AM 21.2 °F 9.5 °F 14.0 °F 74% 30.20 in 3.0 mi NW 11.5 mph 19.6 mph 0.00 in Snow Light Snow
1:43 AM 21.2 °F 6.8 °F 10.4 °F 63% 30.22 in 10.0 mi NW 17.3 mph 20.7 mph 0.00 in   Overcast
1:53 AM 21.0 °F 8.1 °F 12.0 °F 68% 30.26 in 10.0 mi NW 13.8 mph 21.9 mph 0.00 in   Overcast
2:44 AM 19.4 °F 4.1 °F 10.4 °F 68% 30.27 in 10.0 mi NW 18.4 mph 25.3 mph N/A   Overcast
2:53 AM 19.9 °F 6.2 °F 9.0 °F 62% 30.31 in 10.0 mi NW 15.0 mph 25.3 mph N/A   Overcast
3:09 AM 19.4 °F 6.0 °F 10.4 °F 68% 30.28 in 10.0 mi NW 13.8 mph 25.3 mph N/A   Overcast
3:38 AM 19.4 °F 5.0 °F 8.6 °F 63% 30.29 in 10.0 mi NW 16.1 mph 25.3 mph 0.00 in   Overcast
3:53 AM 19.9 °F 6.2 °F 7.0 °F 57% 30.33 in 10.0 mi NW 15.0 mph 26.5 mph 0.00 in   Overcast
4:53 AM 19.9 °F 8.6 °F 6.1 °F 55% 30.35 in 10.0 mi WNW 10.4 mph 19.6 mph N/A   Overcast
5:53 AM 19.9 °F 6.2 °F 9.0 °F 62% 30.39 in 4.0 mi WNW 15.0 mph 23.0 mph 0.00 in Snow Light Snow
6:53 AM 19.9 °F 8.6 °F 9.0 °F 62% 30.42 in 10.0 mi WNW 10.4 mph 25.3 mph 0.00 in   Overcast
7:53 AM 19.9 °F 7.9 °F 7.0 °F 57% 30.43 in 9.0 mi West 11.5 mph 18.4 mph 0.00 in Snow Light Snow
8:53 AM 19.9 °F 7.3 °F 5.0 °F 52% 30.45 in 10.0 mi West 12.7 mph 20.7 mph 0.00 in   Mostly Cloudy
9:53 AM 21.0 °F 8.1 °F 6.1 °F 53% 30.47 in 10.0 mi West 13.8 mph 23.0 mph N/A   Mostly Cloudy
10:53 AM 21.0 °F 8.1 °F 7.0 °F 55% 30.47 in 10.0 mi West 13.8 mph 21.9 mph N/A   Mostly Cloudy
11:53 AM 21.9 °F 8.2 °F 9.0 °F 58% 30.45 in 10.0 mi West 16.1 mph 24.2 mph N/A   Overcast
12:53 PM 23.0 °F 10.1 °F 10.0 °F 58% 30.42 in 10.0 mi WSW 15.0 mph 23.0 mph N/A   Mostly Cloudy
1:53 PM 25.0 °F 14.2 °F 12.9 °F 60% 30.39 in 10.0 mi WSW 11.5 mph - N/A   Overcast
2:53 PM 26.1 °F 14.0 °F 12.9 °F 58% 30.36 in 10.0 mi SSW 15.0 mph 20.7 mph N/A   Overcast
3:53 PM 26.1 °F 14.0 °F 10.0 °F 51% 30.32 in 10.0 mi SSW 15.0 mph - N/A   Clear
4:53 PM 26.1 °F 16.2 °F 10.9 °F 53% 30.29 in 10.0 mi SSW 10.4 mph - N/A   Scattered Clouds
5:53 PM 27.0 °F 16.7 °F 10.9 °F 51% 30.26 in 10.0 mi South 11.5 mph 18.4 mph N/A   Partly Cloudy
6:53 PM 27.0 °F 15.6 °F 12.0 °F 53% 30.23 in 10.0 mi SSW 13.8 mph - N/A   Clear
7:53 PM 28.0 °F 15.7 °F 12.0 °F 51% 30.19 in 10.0 mi SSW 17.3 mph 32.2 mph N/A   Clear
8:53 PM 30.0 °F 16.9 °F 12.9 °F 49% 30.14 in 10.0 mi South 21.9 mph 29.9 mph N/A   Clear
9:53 PM 30.9 °F 18.1 °F 14.0 °F 50% 30.11 in 10.0 mi SSW 21.9 mph 40.3 mph N/A   Overcast
10:53 PM 33.1 °F 20.6 °F 15.1 °F 48% 30.08 in 10.0 mi SSW 23.0 mph 34.5 mph 0.00 in   Overcast
11:53 PM 34.0 °F 21.8 °F 14.0 °F 44% 30.06 in 10.0 mi South 23.0 mph 35.7 mph N/A   Overcast